• In Belarus
  • List of Countries
  • For 7 days
  • Water Temperature
  • Satellite Maps
  • Weather Map
  • Weather Widgets
  • user-avatar
    Login

    Hourly Weather Kandahar

    Today, 18 December, Monday

    Time Temperature Precipitation Wind Pressure Humidity
    00:00 +12°C° 0 mm 2 mps 679 mmHg 24%
    01:00 +10°C° 0 mm 2 mps 679 mmHg 24%
    02:00 +10°C° 0 mm 2 mps 679 mmHg 24%
    03:00 +10°C° 0 mm 2 mps 679 mmHg 24%
    04:00 +10°C° 0 mm 2 mps 679 mmHg 25%
    05:00 +10°C° 0 mm 3 mps 679 mmHg 25%
    06:00 +10°C° 0 mm 3 mps 679 mmHg 25%
    07:00 +10°C° 0 mm 3 mps 679 mmHg 25%
    08:00 +12°C° 0 mm 3 mps 680 mmHg 22%
    09:00 +14°C° 0 mm 3 mps 681 mmHg 19%
    10:00 +17°C° 0 mm 3 mps 681 mmHg 16%
    11:00 +18°C° 0 mm 3 mps 681 mmHg 15%
    12:00 +18°C° 0 mm 3 mps 680 mmHg 14%
    13:00 +19°C° 0 mm 2 mps 680 mmHg 13%
    14:00 +19°C° 0 mm 2 mps 680 mmHg 14%
    15:00 +19°C° 0 mm 1 mps 679 mmHg 14%
    16:00 +18°C° 0 mm 1 mps 679 mmHg 15%
    17:00 +16°C° 0 mm 1 mps 679 mmHg 17%
    18:00 +15°C° 0 mm 1 mps 679 mmHg 18%
    19:00 +13°C° 0 mm 1 mps 679 mmHg 19%
    20:00 +13°C° 0 mm 2 mps 679 mmHg 20%
    21:00 +13°C° 0 mm 2 mps 679 mmHg 20%
    22:00 +13°C° 0 mm 2 mps 679 mmHg 21%
    23:00 +12°C° 0 mm 2 mps 679 mmHg 21%

    Tomorrow, 19 December, Tuesday

    Time Temperature Precipitation Wind Pressure Humidity
    00:00 +12°C° 0 mm 2 mps 679 mmHg 22%
    01:00 +10°C° 0 mm 2 mps 679 mmHg 23%
    02:00 +10°C° 0 mm 3 mps 679 mmHg 24%
    03:00 +10°C° 0 mm 3 mps 679 mmHg 24%
    04:00 +10°C° 0 mm 3 mps 678 mmHg 24%
    05:00 +9°C° 0 mm 3 mps 679 mmHg 25%
    06:00 +9°C° 0 mm 3 mps 679 mmHg 25%
    07:00 +9°C° 0 mm 3 mps 679 mmHg 25%
    08:00 +11°C° 0 mm 3 mps 680 mmHg 22%
    09:00 +13°C° 0 mm 3 mps 681 mmHg 19%
    10:00 +16°C° 0 mm 3 mps 681 mmHg 16%
    11:00 +17°C° 0 mm 3 mps 681 mmHg 15%
    12:00 +18°C° 0 mm 3 mps 681 mmHg 14%
    13:00 +19°C° 0 mm 2 mps 680 mmHg 12%
    14:00 +18°C° 0 mm 2 mps 680 mmHg 14%
    15:00 +18°C° 0 mm 2 mps 680 mmHg 15%
    16:00 +18°C° 0 mm 1 mps 679 mmHg 17%
    17:00 +16°C° 0 mm 2 mps 680 mmHg 20%
    18:00 +15°C° 0 mm 2 mps 680 mmHg 24%
    19:00 +14°C° 0 mm 2 mps 680 mmHg 27%
    20:00 +13°C° 0 mm 2 mps 680 mmHg 29%
    21:00 +13°C° 0 mm 1 mps 680 mmHg 30%
    22:00 +13°C° 0 mm 1 mps 680 mmHg 32%
    23:00 +12°C° 0 mm 1 mps 680 mmHg 33%

    Day after tomorrow, 20 December, Wednesday

    Time Temperature Precipitation Wind Pressure Humidity
    00:00 +12°C° 0 mm 1 mps 680 mmHg 33%
    01:00 +12°C° 0 mm 1 mps 680 mmHg 33%
    02:00 +12°C° 0 mm 1 mps 680 mmHg 34%
    03:00 +11°C° 0 mm 1 mps 680 mmHg 34%
    04:00 +11°C° 0 mm 1 mps 679 mmHg 34%
    05:00 +11°C° 0 mm 1 mps 680 mmHg 34%
    06:00 +11°C° 0 mm 1 mps 680 mmHg 34%
    07:00 +11°C° 0 mm 1 mps 681 mmHg 34%
    08:00 +13°C° 0 mm 1 mps 681 mmHg 31%
    09:00 +14°C° 0 mm 1 mps 682 mmHg 27%
    10:00 +16°C° 0 mm 1 mps 683 mmHg 24%
    11:00 +18°C° 0 mm 1 mps 682 mmHg 22%
    12:00 +18°C° 0 mm 1 mps 682 mmHg 21%
    13:00 +17°C° 0 mm 0 mps 681 mmHg 20%
    14:00 +19°C° 0 mm 1 mps 681 mmHg 20%
    15:00 +18°C° 0 mm 1 mps 681 mmHg 21%
    16:00 +18°C° 0 mm 1 mps 681 mmHg 22%
    17:00 +16°C° 0 mm 1 mps 681 mmHg 24%
    18:00 +15°C° 0 mm 2 mps 681 mmHg 27%
    19:00 +13°C° 0 mm 2 mps 681 mmHg 30%
    20:00 +13°C° 0 mm 1 mps 681 mmHg 32%
    21:00 +12°C° 0 mm 1 mps 681 mmHg 35%
    22:00 +11°C° 0 mm 1 mps 681 mmHg 37%
    23:00 +11°C° 0 mm 1 mps 681 mmHg 39%

    21 December, Thursday

    Time Temperature Precipitation Wind Pressure Humidity
    00:00 +10°C° 0 mm 1 mps 681 mmHg 41%
    01:00 +10°C° 0 mm 1 mps 681 mmHg 42%
    02:00 +10°C° 0 mm 1 mps 681 mmHg 44%
    03:00 +9°C° 0 mm 1 mps 680 mmHg 45%
    04:00 +9°C° 0 mm 1 mps 680 mmHg 46%
    05:00 +9°C° 0 mm 1 mps 681 mmHg 46%
    06:00 +7°C° 0 mm 0 mps 681 mmHg 47%
    07:00 +7°C° 0 mm 0 mps 681 mmHg 47%
    08:00 +9°C° 0 mm 0 mps 682 mmHg 41%
    09:00 +12°C° 0 mm 0 mps 683 mmHg 35%
    10:00 +14°C° 0 mm 0 mps 683 mmHg 29%
    11:00 +16°C° 0 mm 1 mps 683 mmHg 27%
    12:00 +18°C° 0 mm 1 mps 682 mmHg 26%
    13:00 +18°C° 0 mm 2 mps 682 mmHg 24%
    14:00 +17°C° 0 mm 2 mps 681 mmHg 24%
    15:00 +17°C° 0 mm 2 mps 681 mmHg 24%
    16:00 +17°C° 0 mm 2 mps 681 mmHg 24%
    17:00 +15°C° 0 mm 2 mps 680 mmHg 26%
    18:00 +14°C° 0 mm 2 mps 680 mmHg 29%
    19:00 +12°C° 0 mm 1 mps 680 mmHg 31%
    20:00 +12°C° 0 mm 1 mps 680 mmHg 32%
    21:00 +11°C° 0 mm 1 mps 680 mmHg 33%
    22:00 +10°C° 0 mm 1 mps 680 mmHg 35%
    23:00 +10°C° 0 mm 1 mps 679 mmHg 36%

    22 December, Friday

    Time Temperature Precipitation Wind Pressure Humidity
    00:00 +9°C° 0 mm 1 mps 679 mmHg 37%
    01:00 +8°C° 0 mm 0 mps 679 mmHg 38%
    02:00 +7°C° 0 mm 0 mps 678 mmHg 39%
    03:00 +7°C° 0 mm 0 mps 678 mmHg 40%
    04:00 +6°C° 0 mm 0 mps 678 mmHg 41%
    05:00 +6°C° 0 mm 0 mps 678 mmHg 41%
    06:00 +6°C° 0 mm 0 mps 678 mmHg 41%
    07:00 +6°C° 0 mm 0 mps 679 mmHg 41%
    08:00 +9°C° 0 mm 0 mps 679 mmHg 36%
    09:00 +11°C° 0 mm 0 mps 680 mmHg 30%
    10:00 +14°C° 0 mm 0 mps 681 mmHg 25%
    11:00 +15°C° 0 mm 0 mps 680 mmHg 23%
    12:00 +16°C° 0 mm 1 mps 680 mmHg 22%
    13:00 +18°C° 0 mm 1 mps 679 mmHg 20%
    14:00 +18°C° 0 mm 1 mps 679 mmHg 20%
    15:00 +18°C° 0 mm 1 mps 678 mmHg 20%
    16:00 +16°C° 0 mm 1 mps 678 mmHg 21%
    17:00 +15°C° 0 mm 1 mps 678 mmHg 23%
    18:00 +13°C° 0 mm 1 mps 678 mmHg 26%
    19:00 +11°C° 0 mm 1 mps 678 mmHg 29%
    20:00 +10°C° 0 mm 0 mps 677 mmHg 30%
    21:00 +9°C° 0 mm 0 mps 677 mmHg 31%
    22:00 +9°C° 0 mm 0 mps 677 mmHg 32%
    23:00 +8°C° 0 mm 0 mps 677 mmHg 33%

    23 December, Saturday

    Time Temperature Precipitation Wind Pressure Humidity
    00:00 +8°C° 0 mm 0 mps 676 mmHg 34%
    01:00 +9°C° 0 mm 1 mps 676 mmHg 34%
    02:00 +9°C° 0 mm 1 mps 675 mmHg 35%
    03:00 +8°C° 0 mm 1 mps 675 mmHg 35%
    04:00 +8°C° 0 mm 1 mps 675 mmHg 36%
    05:00 +8°C° 0 mm 1 mps 675 mmHg 36%
    06:00 +8°C° 0 mm 1 mps 675 mmHg 35%
    07:00 +8°C° 0 mm 1 mps 676 mmHg 35%
    08:00 +11°C° 0 mm 1 mps 676 mmHg 31%
    09:00 +13°C° 0 mm 1 mps 677 mmHg 26%
    10:00 +15°C° 0 mm 1 mps 677 mmHg 21%
    11:00 +16°C° 0 mm 1 mps 677 mmHg 20%
    12:00 +18°C° 0 mm 1 mps 676 mmHg 18%
    13:00 +19°C° 0 mm 1 mps 676 mmHg 16%
    14:00 +19°C° 0 mm 1 mps 675 mmHg 17%
    15:00 +18°C° 0 mm 1 mps 675 mmHg 17%
    16:00 +18°C° 0 mm 1 mps 675 mmHg 18%
    17:00 +16°C° 0 mm 1 mps 675 mmHg 19%
    18:00 +14°C° 0 mm 1 mps 675 mmHg 21%
    19:00 +13°C° 0 mm 1 mps 675 mmHg 23%
    20:00 +13°C° 0 mm 1 mps 675 mmHg 23%
    21:00 +13°C° 0 mm 1 mps 675 mmHg 23%
    22:00 +12°C° 0 mm 1 mps 675 mmHg 24%
    23:00 +12°C° 0 mm 2 mps 675 mmHg 24%
    Show more